TimeAKDT,TemperatureF,Dew PointF,Humidity,Sea Level PressureIn,VisibilityMPH,Wind Direction,Wind SpeedMPH,Gust SpeedMPH,PrecipitationIn,Events,Conditions,WindDirDegrees,DateUTC
12:53 AM,61.0,53.1,75,30.13,10.0,SW,6.9,-,N/A,,Mostly Cloudy,220,2013-07-18 08:53:00
1:53 AM,61.0,53.1,75,30.13,10.0,SW,6.9,-,N/A,,Mostly Cloudy,230,2013-07-18 09:53:00
2:53 AM,59.0,54.0,83,30.14,10.0,Calm,Calm,-,N/A,,Clear,0,2013-07-18 10:53:00
3:53 AM,57.9,54.0,87,30.14,10.0,Calm,Calm,-,N/A,,Clear,0,2013-07-18 11:53:00
4:53 AM,57.0,53.1,87,30.14,10.0,Calm,Calm,-,N/A,,Scattered Clouds,0,2013-07-18 12:53:00
5:53 AM,57.0,53.1,87,30.13,10.0,Calm,Calm,-,N/A,,Scattered Clouds,0,2013-07-18 13:53:00
6:53 AM,60.1,54.0,80,30.14,10.0,Calm,Calm,-,N/A,,Scattered Clouds,0,2013-07-18 14:53:00
7:53 AM,64.0,55.0,73,30.14,10.0,Calm,Calm,-,N/A,,Scattered Clouds,0,2013-07-18 15:53:00
8:53 AM,64.9,54.0,68,30.14,10.0,Calm,Calm,-,N/A,,Scattered Clouds,0,2013-07-18 16:53:00
9:53 AM,66.9,55.0,66,30.15,10.0,SW,4.6,-,N/A,,Scattered Clouds,230,2013-07-18 17:53:00
10:53 AM,66.0,57.0,73,30.16,10.0,WNW,5.8,-,N/A,,Mostly Cloudy,300,2013-07-18 18:53:00
11:53 AM,66.0,57.0,73,30.15,10.0,NNW,5.8,-,N/A,,Mostly Cloudy,330,2013-07-18 19:53:00
12:53 PM,70.0,57.0,63,30.14,10.0,NW,5.8,-,N/A,,Mostly Cloudy,320,2013-07-18 20:53:00
1:53 PM,66.9,55.9,68,30.15,10.0,WNW,9.2,-,N/A,,Mostly Cloudy,290,2013-07-18 21:53:00
2:53 PM,68.0,57.0,68,30.13,10.0,WNW,3.5,-,N/A,,Overcast,300,2013-07-18 22:53:00
3:53 PM,66.9,57.0,70,30.13,10.0,Calm,Calm,-,N/A,,Overcast,0,2013-07-18 23:53:00
4:53 PM,68.0,57.0,68,30.13,10.0,NW,6.9,-,N/A,,Mostly Cloudy,310,2013-07-19 00:53:00
5:53 PM,70.0,57.0,63,30.12,10.0,NNW,6.9,-,N/A,,Mostly Cloudy,330,2013-07-19 01:53:00
6:53 PM,68.0,55.9,65,30.11,10.0,NW,6.9,-,N/A,,Mostly Cloudy,310,2013-07-19 02:53:00
7:53 PM,66.9,55.9,68,30.09,10.0,NNW,4.6,-,N/A,,Mostly Cloudy,340,2013-07-19 03:53:00
8:53 PM,64.9,55.9,73,30.09,10.0,Calm,Calm,-,N/A,,Mostly Cloudy,0,2013-07-19 04:53:00
9:53 PM,63.0,55.9,78,30.10,10.0,Variable,3.5,-,N/A,,Mostly Cloudy,0,2013-07-19 05:53:00
10:53 PM,69.1,55.9,63,30.11,10.0,SSW,6.9,-,N/A,,Mostly Cloudy,210,2013-07-19 06:53:00
11:53 PM,66.9,57.9,73,30.11,10.0,South,4.6,-,N/A,,Mostly Cloudy,190,2013-07-19 07:53:00